CZ-4 DEB, 26432

Orbit data source: Space-Track

CZ-4 DEB, 26432 is space debris in SSO originally from a launch on Thu, 14 Oct 1999 UTC launched from the Taiyaun Space Center, China (TSC). Debris objects in space refer to the collection of defunct objects orbiting the Earth. Examples of debris include non-operational satellites, rocket bodies, and fragments generated from explosions, collisions, or faulty payload assembly.

Loading next visibility...
Identifier
26432, 1999-057KD
Orbit
SSO
Country
Flag of CNCN / PRC
Related business
Manufacturer
Unknown
Mission
Spacecraft
Bus & Motor
Unknown
Mass
Unknown
Launch date (UTC)
1999-10-14 (27 years ago)
Launch vehicle
Unknown
Launch site
Taiyaun Space Center, China (TSC)
Object type
Payload
Rocket body
Debris
Shape & HBR
Unknown shape, 0.1 m
Radar Cross Section
Medium (>0.1 m² and <1 m²)

Expand to show TLE details & history
Last TLE update: 1 day ago

TLE from 1 day ago
0 CZ-4 DEB
1 26432U 99057KD  26171.37749983  .00024680  00000-0  20300-2 0  9991
2 26432  98.5638 314.5595 0050873 149.7769 210.6402 14.98097154372281
Epoch: 2026-06-20T09:03Z
TLE epoch observation values (Epoch: 2026-06-20T09:03:35.985Z)
Latitude
-0.00006°
Longitude
-89.93342°
Altitude
606.279 km
Speed
7.54 km/s
True Right ascension
20h 58m 14s
True Declination
0° 00' 00"
Sunlit
Object was in full shadow at epoch
Visualization orbit readout
Latitude
Unknown
Longitude
Unknown
Altitude
Unknown
Speed
Unknown
Apparent Right ascension
Unknown
Apparent Declination
Unknown
Sunlit
N/A
Visualization observer readout
Local Sidereal Time
21:23:06
Azimuth
Unknown
Elevation
Unknown
Doppler factor
Unknown
Orbital elements
Apogee altitude
605.17 km
Perigee altitude
534.477 km
Semi-major axis
6,947.961 km
Eccentricity
0.00509
Inclination
98.5638°
RAAN
314.5595°
Arg. of periapsis
149.7769°
True anomaly
210.34471°
Mean anomaly
210.6402°
Eccentric anomaly
210.4923°
Mean motion
3.74763 °/min
Orbital period
96.06 mins
BSTAR
0.00203
Loading maneuver chart data...
Computing Atmospheric mass density...

Documentation

Showing up to 5 results
|